TimeCDT,TemperatureF,Dew PointF,Humidity,Sea Level PressureIn,VisibilityMPH,Wind Direction,Wind SpeedMPH,Gust SpeedMPH,PrecipitationIn,Events,Conditions,WindDirDegrees,DateUTC
12:53 AM,48.0,39.0,71,29.87,10.0,Calm,Calm,-,N/A,,Clear,0,2012-10-03 05:53:00
1:53 AM,46.0,39.0,76,29.88,10.0,Calm,Calm,-,N/A,,Clear,0,2012-10-03 06:53:00
2:53 AM,43.0,39.0,86,29.89,10.0,Calm,Calm,-,N/A,,Clear,0,2012-10-03 07:53:00
3:53 AM,42.1,39.9,92,29.88,10.0,Calm,Calm,-,N/A,,Clear,0,2012-10-03 08:53:00
4:53 AM,44.1,41.0,89,29.88,10.0,Calm,Calm,-,N/A,,Clear,0,2012-10-03 09:53:00
5:53 AM,42.1,39.9,92,29.89,10.0,Calm,Calm,-,N/A,,Clear,0,2012-10-03 10:53:00
7:53 AM,42.1,39.9,92,29.91,9.0,Calm,Calm,-,N/A,,Clear,0,2012-10-03 12:53:00
8:53 AM,53.1,44.1,71,29.91,10.0,Calm,Calm,-,N/A,,Clear,0,2012-10-03 13:53:00
9:53 AM,61.0,41.0,48,29.91,10.0,South,6.9,-,N/A,,Clear,180,2012-10-03 14:53:00
10:53 AM,66.9,39.9,37,29.91,10.0,SSE,5.8,-,N/A,,Clear,150,2012-10-03 15:53:00
11:53 AM,71.1,35.1,27,29.90,10.0,SSW,4.6,-,N/A,,Clear,200,2012-10-03 16:53:00
12:53 PM,73.9,30.9,21,29.88,10.0,South,9.2,-,N/A,,Clear,180,2012-10-03 17:53:00
1:53 PM,75.9,34.0,22,29.85,10.0,SE,13.8,18.4,N/A,,Clear,140,2012-10-03 18:53:00
2:53 PM,77.0,36.0,23,29.83,10.0,SE,15.0,19.6,N/A,,Clear,130,2012-10-03 19:53:00
3:53 PM,77.0,37.9,24,29.82,10.0,South,11.5,19.6,N/A,,Clear,170,2012-10-03 20:53:00
4:53 PM,77.0,37.9,24,29.82,10.0,SSE,8.1,-,N/A,,Clear,160,2012-10-03 21:53:00
5:53 PM,73.9,39.0,28,29.83,10.0,SSE,5.8,-,N/A,,Clear,150,2012-10-03 22:53:00
6:53 PM,70.0,39.0,32,29.85,10.0,SE,4.6,-,N/A,,Clear,140,2012-10-03 23:53:00
7:53 PM,66.9,41.0,39,29.85,10.0,ESE,5.8,-,N/A,,Clear,120,2012-10-04 00:53:00
8:53 PM,66.9,42.1,40,29.84,10.0,ESE,5.8,-,N/A,,Clear,120,2012-10-04 01:53:00
10:53 PM,66.0,43.0,43,29.84,10.0,SSE,6.9,-,N/A,,Clear,150,2012-10-04 03:53:00
11:53 PM,64.9,43.0,45,29.82,10.0,SSE,10.4,-,N/A,,Clear,150,2012-10-04 04:53:00